Probability
5 5 5 4 4 2 1 0 0 0 0 0 0 0 0 0 0 0 0 0 0 0 0 0 0 0 0 1 1 1 0 0 1 2 2 2 5 8
4 4 4 4 4 3 1 0 0 0 0 0 0 0 0 0 0 0 0 0 0 0 0 0 0 0 0 0 0 0 0 0 0 1 1 1 3 4
3 3 3 3 3 2 1 0 0 0 0 0 0 0 0 0 0 0 0 0 0 0 0 0 0 0 0 0 0 0 0 0 0 0 0 0 1 1
2 2 2 1 1 1 1 0 0 0 0 0 0 0 0 0 0 0 0 0 0 0 0 0 0 0 0 0 0 0 0 0 0 0 0 0 0 1
1 0 0 0 0 0 0 0 0 0 0 0 0 0 0 0 0 0 0 0 0 0 0 0 0 0 0 0 0 0 0 0 0 0 0 0 0 0
0 0 0 0 0 0 0 0 0 0 0 0 0 0 0 0 0 0 0 0 0 0 0 0 0 0 0 0 0 0 0 0 0 0 0 0 0 0
0 0 0 0 0 0 0 0 0 0 0 0 0 0 0 0 0 0 0 0 0 0 0 0 0 0 0 0 0 0 0 0 0 0 0 0 0 0
0 0 0 0 0 0 0 0 0 0 0 0 0 0 0 0 0 0 0 0 0 0 0 0 0 0 0 0 0 0 0 0 0 0 0 0 0 0
0 0 0 0 0 0 0 0 0 0 0 0 0 0 0 0 0 0 0 0 0 0 1 0 0 0 0 0 0 0 0 0 0 0 0 0 0 0
0 0 0 0 0 0 0 0 0 0 0 0 0 0 0 0 0 0 0 0 0 0 0 0 0 0 0 0 0 0 0 0 0 0 0 0 0 0
0 0 0 0 0 0 0 0 0 0 0 0 0 0 0 0 0 0 0 0 0 0 0 0 0 0 0 0 0 0 0 0 0 0 0 0 0 0
0 0 0 0 0 0 0 0 0 0 0 0 0 0 0 0 0 0 0 0 0 0 0 0 0 0 0 0 0 0 0 0 0 0 0 0 0 0
0 0 0 0 0 0 0 0 0 0 0 0 0 0 0 0 0 0 0 0 0 0 0 0 0 0 0 0 0 0 0 0 0 0 0 0 0 0
0 0 0 0 0 0 0 0 0 0 0 0 0 0 0 0 0 0 0 0 0 0 0 0 0 0 0 0 0 0 0 0 0 0 0 0 0 0
0 0 0 0 0 0 0 0 0 0 0 0 0 0 0 0 0 0 0 0 0 0 0 0 0 0 0 0 0 0 0 0 0 0 0 0 0 0
0 0 0 0 0 0 0 0 0 0 0 0 0 0 0 0 0 0 0 0 0 0 0 0 0 0 0 0 0 0 0 0 0 0 0 0 0 0
0 0 0 0 0 0 0 0 0 0 0 0 0 0 0 0 0 0 0 0 0 0 0 0 0 0 0 0 0 0 0 0 0 0 0 0 0 0
0 0 0 0 0 0 0 0 0 0 0 0 0 0 0 0 0 0 0 0 0 0 0 0 0 0 0 0 0 0 0 0 0 0 0 0 0 0
0 0 0 0 0 0 0 0 0 0 0 0 0 0 0 0 0 0 0 0 0 0 0 0 0 0 0 0 0 0 0 0 0 0 0 0 0 0
0 0 0 0 0 0 0 0 0 0 0 0 0 0 0 0 0 0 0 0 0 0 0 0 0 0 0 0 0 0 0 0 0 0 0 0 0 0
0 0 0 0 0 0 0 0 0 0 0 0 0 0 0 0 0 0 0 0 0 0 0 0 0 0 0 0 0 0 0 0 0 0 0 0 0 0
0 0 0 0 0 0 0 0 0 0 0 0 0 0 0 0 0 0 0 0 0 0 0 0 0 0 0 0 0 0 0 0 0 0 0 0 0 0
0 0 0 0 0 0 0 0 0 0 0 0 0 0 0 0 0 0 0 0 0 0 0 0 0 0 0 0 0 0 0 0 0 0 0 0 0 0
Wind_Speed
2 2 2 2 2 2 2 2 2 3 4 4 3 3 3 3 5 5 5 7 8 8 7 7 8 9 9 10 10 10 10 10 9 10 10 9 10 10
2 2 2 2 2 2 2 2 3 3 4 3 3 4 4 4 5 5 6 8 8 8 7 7 7 8 8 8 9 10 10 10 10 10 11 11 11 11
1 2 2 2 2 1 1 1 2 2 4 4 3 3 4 5 5 4 4 4 4 6 7 7 7 7 7 8 8 9 10 10 11 11 11 12 12 11
2 2 2 1 2 2 1 2 2 3 3 5 4 3 4 5 5 5 4 4 4 5 6 7 7 7 7 7 8 8 9 10 11 11 12 12 12 12
1 1 2 1 2 2 2 2 2 2 2 3 4 3 3 3 4 4 5 4 4 5 5 5 6 7 7 7 7 8 8 9 10 11 11 12 11 11
1 1 2 2 3 3 2 3 2 2 2 2 3 3 3 3 3 3 4 3 4 4 4 4 5 6 7 7 8 8 8 8 9 10 10 11 11 11
2 2 2 3 3 2 2 3 2 2 2 2 3 3 3 3 3 2 4 4 4 3 3 3 3 3 4 6 6 7 7 8 9 9 10 10 11 11
2 3 3 2 3 4 4 3 2 3 3 3 3 4 5 4 3 3 3 3 4 2 2 4 3 4 4 4 4 5 6 7 8 9 9 10 10 10
2 2 2 3 3 3 4 4 3 4 4 4 5 5 5 4 3 4 4 4 4 3 3 4 3 4 3 3 4 5 5 6 6 7 9 10 10 10
2 2 2 3 3 3 3 3 4 4 4 3 4 5 5 5 4 4 4 4 5 3 2 3 3 3 3 3 4 5 4 5 6 7 7 9 10 10
3 2 3 3 5 4 2 3 5 5 5 4 5 5 5 5 3 2 2 3 4 3 1 2 3 3 3 3 3 3 4 4 4 5 6 7 7 7
3 3 4 4 5 4 2 3 4 5 5 5 5 5 4 4 3 3 3 3 3 3 1 2 2 2 2 2 1 2 2 2 3 4 5 5 6 5
2 3 4 6 6 5 3 2 5 5 5 4 4 4 4 3 3 3 3 3 3 4 2 2 2 2 2 2 2 2 2 2 1 2 3 4 5 5
2 3 4 6 6 5 3 4 5 4 3 3 3 4 4 4 4 3 3 3 4 5 4 3 3 3 3 3 3 2 2 2 1 2 2 2 4 5
2 4 5 6 6 4 5 6 4 3 2 3 4 4 4 5 4 3 3 3 3 4 3 3 3 3 3 3 3 2 2 2 1 1 1 2 2 3
2 4 5 5 4 4 5 4 3 2 2 3 4 4 4 4 3 3 3 3 2 3 3 2 2 2 2 3 3 3 2 2 2 1 2 2 2 3
2 2 2 3 4 4 4 4 3 3 3 3 3 4 4 4 4 3 2 2 2 3 3 2 2 1 2 3 2 3 3 3 3 2 2 2 2 3
1 2 3 3 3 4 4 4 4 3 3 3 3 4 4 4 4 4 3 2 2 3 3 2 2 1 1 1 3 4 3 3 2 2 2 2 3 3
1 2 2 3 3 3 3 3 4 4 3 3 3 4 4 4 4 4 3 3 3 3 3 2 1 1 2 3 2 3 3 3 2 2 2 2 3 3
1 2 3 3 3 3 3 3 4 4 3 3 3 4 3 3 4 4 3 3 3 3 3 2 2 2 3 3 3 2 3 3 2 2 2 2 2 3
2 2 3 3 3 3 3 3 4 4 4 3 3 4 4 4 4 4 4 4 3 3 3 3 3 3 2 1 1 2 2 2 2 2 2 2 2 2
2 3 3 3 3 3 3 3 3 4 4 3 4 4 4 3 4 5 4 3 3 3 3 3 2 1 0 1 2 2 3 3 2 1 2 2 2 2
3 3 3 3 3 3 3 3 4 4 4 4 4 4 4 3 3 3 4 3 3 3 3 2 1 1 0 1 1 2 3 3 2 1 2 2 2 2
Wind_Direction
238 235 236 250 240 230 216 209 225 276 283 275 278 282 287 282 286 285 279 277 275 269 265 260 257 252 247 241 237 235 233 230 226 228 227 230 233 230
226 231 246 255 256 246 230 221 214 232 268 274 269 286 295 295 296 291 281 284 278 274 267 260 254 252 249 246 241 235 233 229 224 227 229 227 230 226
254 234 255 259 264 266 247 232 227 224 258 281 280 290 288 292 302 300 291 282 278 275 273 266 259 255 252 247 246 243 236 231 226 226 228 225 224 223
275 269 277 285 280 272 261 256 248 233 242 276 290 292 282 290 301 302 303 296 285 279 275 268 259 253 253 250 246 245 241 234 227 226 227 226 221 219
284 273 277 288 291 291 286 278 270 270 250 263 283 287 289 303 315 311 309 298 291 290 279 270 264 257 256 252 248 244 241 236 228 222 222 222 220 219
325 302 285 263 265 278 285 279 276 284 279 276 282 292 291 303 310 309 310 303 297 297 286 282 272 266 262 257 250 244 237 233 229 223 218 218 217 215
345 331 303 296 296 281 279 274 269 269 278 281 286 292 292 303 304 297 295 303 292 282 287 288 285 278 269 260 251 243 238 229 224 223 220 218 216 214
328 323 314 314 327 323 314 302 269 253 257 260 272 281 283 283 288 288 293 302 298 288 280 288 284 279 270 256 251 247 238 230 222 221 222 221 217 215
305 313 322 332 334 322 327 331 320 295 257 245 260 266 271 269 275 284 280 277 277 289 283 282 283 278 277 268 248 243 240 231 227 224 227 223 218 214
306 297 302 307 312 320 319 326 317 305 289 271 256 266 270 271 258 264 272 282 281 280 261 271 281 277 288 282 271 246 231 232 233 227 227 225 219 214
323 318 305 303 308 321 324 314 314 310 309 306 296 289 287 287 280 278 283 282 289 291 261 259 278 284 288 284 276 253 239 235 236 230 223 221 213 207
328 328 327 322 320 327 310 299 303 304 315 320 321 317 307 296 284 252 252 265 283 286 270 256 275 284 284 277 294 303 289 257 233 231 220 213 203 200
320 325 323 328 328 327 316 285 284 297 307 312 316 320 321 313 301 285 257 246 259 268 276 254 265 263 260 282 297 300 297 292 266 232 220 208 202 202
292 302 310 326 332 331 328 322 322 324 319 321 322 320 318 315 309 301 286 267 251 258 274 262 257 255 256 268 278 289 293 292 273 273 270 215 207 206
278 301 319 327 331 332 332 334 335 333 327 322 316 310 305 303 308 310 305 292 285 278 274 254 255 260 254 259 271 279 288 293 278 272 272 235 221 208
317 322 331 335 335 329 334 339 338 323 312 306 305 304 309 312 316 317 310 314 308 304 301 286 266 255 260 258 260 272 271 273 287 289 275 253 228 211
317 332 343 342 340 339 336 332 331 333 326 314 309 313 317 318 316 316 302 295 285 295 307 317 311 269 252 258 256 258 261 263 268 271 260 260 247 232
19 330 321 320 318 320 322 324 323 322 319 315 313 315 317 317 316 316 307 294 288 289 295 302 321 328 306 266 243 250 257 262 266 255 246 250 259 248
356 301 298 299 301 305 309 311 312 313 311 307 307 309 311 312 313 313 312 305 297 288 287 285 285 279 295 304 298 240 255 268 259 250 247 247 258 258
282 287 291 291 290 294 298 303 306 311 311 307 305 305 306 307 308 307 308 307 301 293 293 295 283 262 255 268 280 295 278 265 264 261 264 270 274 267
281 281 284 287 289 291 292 294 298 301 307 307 304 306 307 305 304 305 307 310 306 301 301 301 291 276 259 239 257 290 303 277 254 264 268 273 283 280
279 281 283 284 287 288 291 294 299 302 305 303 303 306 305 299 299 304 309 310 306 306 299 298 313 330 330 247 280 298 311 326 323 292 266 261 259 254
271 276 280 285 285 285 286 292 297 300 301 302 304 306 306 303 302 301 304 306 307 314 319 323 345 26 6 279 291 306 318 325 331 341 339 334 275 268